Location: Bauerbach
(50.4985°N, 10.3912°E)
Time: 05:27:51
(UTC+00:00)

BREEZE M DEB (TANK) - Pass Details

Date: 13 January 2026
Orbit: 286 x 11206 km, 49.5° (Epoch: 17 February)

Event Time Altitude Azimuth Distance (km) Brightness Sun altitude
Exits shadow 05:21:00 33° 245° (WSW) 873 2.9 -17.3°
Maximum altitude 05:22:06 46° 195° (SSW) 809 3.1 -17.2°
Drops below altitude 10° 05:28:40 10° 124° (SE) 3,476 7.5 -16.2°
Sets 05:34:03 0° 120° (ESE) 5,814 9.1 -15.3°
